Epoch 2016 Apr. 2.0 TT = JDT 2457480.5 T 2016 Apr. 15.79958 TT MPCW q 1.3766379 (2000.0) P Q z +0.0051619 Peri. 66.71062 +0.71419604 -0.52601754 +/-0.0000009 Node 40.04557 -0.47807093 -0.84845477 e 0.9928939 Incl. 134.13482 +0.51124574 -0.05856658 From 329 observations 2015 Oct. 25-2016 July 23, mean residual 0".6.
H = 17.0 G = 0.15 [ ,-115] ( 〜2015年12月22日) m1 = 3.5 + 5 logΔ + 50 log r [-115, 0] (2015年12月22日〜2016年 4月15日) m1 = 7.0 + 5 logΔ + 25 log r [ 0, ] (2016年 4月15日〜 )